Troy, MI

4:16 PM EDT on September 26, 2017 (GMT -0400)
Troy

Weather History for KVLL - March, 2013

Change the Weather History Date:

Friday, March 22, 2013

  Actual Average (KDET) Record (KDET)
Temperature  
Mean Temperature 33 °F -  
Max Temperature 39 °F 44 °F 82 °F (2012)
Min Temperature 27 °F 29 °F 10 °F (1959)
Degree Days  
Heating Degree Days 32    
Moisture  
Dew Point 18 °F    
Average Humidity 56    
Maximum Humidity 67    
Minimum Humidity 41    
Precipitation  
Precipitation 0.00 in - - ()
Sea Level Pressure  
Sea Level Pressure 29.97 in    
Wind  
Wind Speed 10 mph (WNW)    
Max Wind Speed 16 mph    
Max Gust Speed 23 mph    
Visibility 10 miles    
Events      
Averages and records for this station are not official NWS values.
T = Trace of Precipitation, MM = Missing Value Source: NWS Daily Summary

Daily Weather History Graph

Daily Weather History Graph

Search for Another Location

Airport or City:

Trip Planner

Search our weather history database for the weather conditions in past years. The results will help you decide how hot, cold, wet, or windy it might be!

Date:

Astronomy

Mar. 22, 2013 Rise Set
Actual Time 7:32 AM EDT 7:47 PM EDT
Civil Twilight 7:03 AM EDT 8:15 PM EDT
Nautical Twilight 6:30 AM EDT 8:48 PM EDT
Astronomical Twilight 5:57 AM EDT 9:22 PM EDT
Moon 3:08 PM EDT (3/22) 4:37 AM EDT (3/22)
Length of Visible Light 13h 11m
Length of Day
12h 15m
Waxing Gibbous, 77% of the Moon is Illuminated
Mar 22
Waxing Gibbous
Mar 27
Full
Apr 3
Last Quarter
Apr 10
New
Apr 18
First Quarter

Hourly Weather History & Observations

Time (EDT) Temp. Windchill Dew Point Humidity Pressure Visibility Wind Dir Wind Speed Gust Speed Precip Events Conditions
12:14 AM 29.3 °F 19.6 °F 18.3 °F 64% 29.92 in 10.0 mi West 11.5 mph 17.3 mph N/A   Overcast
12:35 AM 29.1 °F 19.4 °F 18.9 °F 66% 29.92 in 10.0 mi WNW 11.5 mph 17.3 mph N/A   Overcast
12:54 AM 28.9 °F 21.9 °F 18.9 °F 66% 29.92 in 10.0 mi West 6.9 mph 10.4 mph N/A   Overcast
1:15 AM 28.8 °F 19.5 °F 19.0 °F 67% 29.93 in 10.0 mi West 10.4 mph - N/A   Overcast
1:34 AM 28.8 °F 18.4 °F 18.1 °F 65% 29.93 in 10.0 mi WNW 12.7 mph 16.1 mph N/A   Overcast
1:54 AM 28.6 °F 19.9 °F 18.3 °F 65% 29.93 in 10.0 mi West 9.2 mph - N/A   Overcast
2:15 AM 28.4 °F 18.0 °F 18.1 °F 65% 29.93 in 10.0 mi WNW 12.7 mph 16.1 mph N/A   Overcast
2:34 AM 28.4 °F 19.1 °F 16.9 °F 62% 29.93 in 10.0 mi WNW 10.4 mph 16.1 mph N/A   Overcast
2:54 AM 28.4 °F 17.5 °F 15.8 °F 59% 29.93 in 10.0 mi WNW 13.8 mph 19.6 mph N/A   Overcast
3:15 AM 28.2 °F 16.3 °F 15.6 °F 59% 29.93 in 10.0 mi WNW 16.1 mph - N/A   Overcast
3:34 AM 28.2 °F 17.2 °F 15.8 °F 60% 29.94 in 10.0 mi WNW 13.8 mph 18.4 mph N/A   Overcast
3:54 AM 28.0 °F 17.5 °F 16.2 °F 61% 29.94 in 10.0 mi WNW 12.7 mph 18.4 mph N/A   Overcast
4:14 AM 28.0 °F 20.8 °F 16.5 °F 62% 29.94 in 10.0 mi WNW 6.9 mph 18.4 mph N/A   Overcast
4:34 AM 28.0 °F 18.6 °F 17.1 °F 63% 29.94 in 10.0 mi WNW 10.4 mph - N/A   Overcast
4:55 AM 27.9 °F 19.8 °F 17.1 °F 64% 29.94 in 10.0 mi WNW 8.1 mph - N/A   Overcast
5:14 AM 27.5 °F 20.2 °F 16.7 °F 64% 29.95 in 10.0 mi NW 6.9 mph - N/A   Overcast
5:35 AM 27.5 °F 15.9 °F 15.4 °F 61% 29.94 in 10.0 mi NW 15.0 mph 19.6 mph N/A   Overcast
5:55 AM 27.3 °F 15.2 °F 15.1 °F 60% 29.95 in 10.0 mi NW 16.1 mph 23.0 mph N/A   Overcast
6:14 AM 27.3 °F 16.1 °F 15.3 °F 61% 29.95 in 10.0 mi WNW 13.8 mph 23.0 mph N/A   Overcast
6:35 AM 27.1 °F 17.5 °F 15.6 °F 62% 29.97 in 10.0 mi NW 10.4 mph 19.6 mph N/A   Overcast
6:54 AM 27.1 °F 16.4 °F 15.6 °F 62% 29.97 in 10.0 mi NW 12.7 mph 18.4 mph N/A   Overcast
7:15 AM 27.1 °F 17.5 °F 15.8 °F 62% 29.98 in 10.0 mi WNW 10.4 mph - N/A   Overcast
7:34 AM 27.1 °F 18.9 °F 16.0 °F 63% 29.98 in 10.0 mi WNW 8.1 mph - N/A   Overcast
7:55 AM 27.1 °F 17.5 °F 15.8 °F 62% 29.98 in 10.0 mi WNW 10.4 mph 16.1 mph N/A   Overcast
8:14 AM 27.1 °F 17.5 °F 15.8 °F 62% 29.99 in 10.0 mi WNW 10.4 mph - N/A   Overcast
8:34 AM 27.3 °F 19.9 °F 15.8 °F 62% 29.98 in 10.0 mi WNW 6.9 mph 16.1 mph N/A   Overcast
8:55 AM 27.5 °F 16.8 °F 15.8 °F 61% 29.99 in 10.0 mi WNW 12.7 mph - N/A   Overcast
9:14 AM 28.0 °F 16.5 °F 15.8 °F 60% 29.98 in 10.0 mi WNW 15.0 mph 20.7 mph N/A   Overcast
9:35 AM 27.9 °F 16.8 °F 15.6 °F 60% 29.99 in 10.0 mi NW 13.8 mph 23.0 mph N/A   Overcast
9:55 AM 28.4 °F 17.5 °F 16.0 °F 60% 29.99 in 10.0 mi NW 13.8 mph 19.6 mph N/A   Overcast
10:14 AM 29.3 °F 19.6 °F 16.3 °F 58% 29.98 in 10.0 mi West 11.5 mph - N/A   Overcast
10:35 AM 29.1 °F 20.6 °F 16.7 °F 60% 29.98 in 10.0 mi NW 9.2 mph - N/A   Overcast
10:54 AM 29.5 °F 18.8 °F 16.5 °F 59% 29.98 in 10.0 mi West 13.8 mph 18.4 mph N/A   Overcast
11:14 AM 31.6 °F 23.7 °F 17.4 °F 56% 29.98 in 10.0 mi WNW 9.2 mph - N/A   Overcast
11:35 AM 31.3 °F 25.6 °F 17.2 °F 56% 29.98 in 10.0 mi WNW 5.8 mph - N/A   Overcast
11:54 AM 32.0 °F 24.8 °F 16.9 °F 54% 29.99 in 10.0 mi WNW 8.1 mph - N/A   Overcast
12:14 PM 32.0 °F 25.6 °F 17.1 °F 54% 29.99 in 10.0 mi West 6.9 mph - N/A   Overcast
12:35 PM 32.0 °F 23.0 °F 17.4 °F 55% 29.99 in 10.0 mi WNW 11.5 mph 17.3 mph N/A   Overcast
12:54 PM 32.0 °F 23.0 °F 17.8 °F 56% 29.99 in 10.0 mi NW 11.5 mph - N/A   Overcast
1:15 PM 33.3 °F 24.1 °F 18.0 °F 53% 29.99 in 10.0 mi West 12.7 mph 16.1 mph N/A   Overcast
1:35 PM 34.2 °F 29.0 °F 18.1 °F 52% 29.98 in 10.0 mi West 5.8 mph - N/A   Overcast
1:54 PM 34.3 °F 27.0 °F 18.3 °F 52% 29.99 in 10.0 mi West 9.2 mph - N/A   Overcast
2:15 PM 34.7 °F 26.9 °F 18.1 °F 51% 29.99 in 10.0 mi WNW 10.4 mph - N/A   Overcast
2:34 PM 35.8 °F 27.8 °F 18.3 °F 49% 29.98 in 10.0 mi West 11.5 mph - N/A   Overcast
2:55 PM 36.7 °F 27.6 °F 18.3 °F 47% 29.98 in 10.0 mi WNW 15.0 mph 18.4 mph N/A   Overcast
3:15 PM 37.0 °F 28.5 °F 18.0 °F 46% 29.98 in 10.0 mi WNW 13.8 mph 19.6 mph N/A   Overcast
3:34 PM 37.4 °F 28.9 °F 18.1 °F 46% 29.97 in 10.0 mi WNW 13.8 mph 18.4 mph N/A   Mostly Cloudy
3:55 PM 37.6 °F 30.0 °F 18.3 °F 46% 29.97 in 10.0 mi West 11.5 mph 18.4 mph N/A   Scattered Clouds
4:14 PM 38.3 °F 30.5 °F 18.3 °F 45% 29.97 in 10.0 mi West 12.7 mph 18.4 mph N/A   Scattered Clouds
4:35 PM 38.8 °F 32.6 °F 18.3 °F 44% 29.96 in 10.0 mi WNW 9.2 mph - N/A   Scattered Clouds
4:54 PM 39.0 °F 32.3 °F 18.0 °F 43% 29.96 in 10.0 mi West 10.4 mph - N/A   Scattered Clouds
5:14 PM 39.4 °F 32.7 °F 18.3 °F 43% 29.95 in 10.0 mi NW 10.4 mph - N/A   Clear
5:35 PM 39.2 °F 33.0 °F 18.1 °F 43% 29.96 in 10.0 mi WNW 9.2 mph - N/A   Clear
5:54 PM 39.4 °F 34.5 °F 17.8 °F 42% 29.96 in 10.0 mi WNW 6.9 mph - N/A   Clear
6:14 PM 39.4 °F 33.2 °F 17.6 °F 41% 29.96 in 10.0 mi NW 9.2 mph - N/A   Clear
6:34 PM 39.4 °F 33.8 °F 18.0 °F 42% 29.97 in 10.0 mi WNW 8.1 mph - N/A   Clear
6:54 PM 38.8 °F 33.2 °F 17.6 °F 42% 29.98 in 10.0 mi West 8.1 mph - N/A   Scattered Clouds
7:15 PM 38.5 °F 33.4 °F 17.8 °F 43% 29.98 in 10.0 mi NW 6.9 mph - N/A   Scattered Clouds
7:34 PM 37.6 °F 32.3 °F 17.6 °F 44% 29.99 in 10.0 mi WNW 6.9 mph - N/A   Clear
7:55 PM 37.0 °F 32.4 °F 18.1 °F 46% 29.99 in 10.0 mi WNW 5.8 mph - N/A   Clear
8:14 PM 36.5 °F 33.9 °F 18.3 °F 48% 30.00 in 10.0 mi WNW 3.5 mph - N/A   Clear
8:34 PM 36.0 °F 33.3 °F 18.5 °F 49% 30.00 in 10.0 mi WNW 3.5 mph - N/A   Clear
8:55 PM 35.6 °F 32.8 °F 18.5 °F 50% 30.01 in 10.0 mi WNW 3.5 mph - N/A   Clear
9:14 PM 34.5 °F - 19.0 °F 53% 30.02 in 10.0 mi Calm Calm - N/A   Scattered Clouds
9:34 PM 34.0 °F - 19.2 °F 55% 30.02 in 10.0 mi Calm Calm - N/A   Overcast
9:54 PM 33.4 °F - 19.4 °F 56% 30.02 in 10.0 mi Calm Calm - N/A   Scattered Clouds
10:14 PM 32.5 °F - 19.6 °F 59% 30.03 in 10.0 mi Calm Calm - N/A   Clear
10:34 PM 32.0 °F - 20.1 °F 62% 30.03 in 10.0 mi Calm Calm - N/A   Clear
10:54 PM 32.0 °F - 20.5 °F 63% 30.03 in 10.0 mi Calm Calm - N/A   Mostly Cloudy
11:15 PM 33.1 °F 28.7 °F 20.5 °F 60% 30.03 in 10.0 mi West 4.6 mph - N/A   Overcast
11:34 PM 33.8 °F 27.0 °F 21.0 °F 60% 30.03 in 10.0 mi WNW 8.1 mph - N/A   Overcast
11:55 PM 33.8 °F 27.7 °F 21.4 °F 60% 30.03 in 10.0 mi WNW 6.9 mph - N/A   Overcast